Regional Weather Roundup
Issued by NWS Charleston, SC

Current Version | Previous Version | Graphics & Text | Print | Product List | Glossary On
Versions: 1 2 3 4 5 6 7 8 9 10 11 12 13 14 15 16 17 18 19 20 21 22 23 24 25 26 27 28 29 30 31 32 33 34 35 36 37 38 39 40 41 42 43 44 45 46 47 48
000 ASUS42 KCHS 210727 RWRCHS REGIONAL WEATHER ROUNDUP NATIONAL WEATHER SERVICE CHARLESTON SC 200 AM EST TUE FEB 21 2017 NOTE: "FAIR" INDICATES FEW OR NO CLOUDS BELOW 12,000 FEET WITH NO SIGNIFICANT WEATHER AND/OR OBSTRUCTIONS TO VISIBILITY. NOT ALL STATIONS ARE QUALITY CONTROLLED. USE DATA WITH CAUTION... ESPECIALLY DEWPOINT OBSERVATIONS. SCZ027-030-031-034>040-042>050-210800- ...SOUTHEAST SOUTH CAROLINA... CITY SKY/WX TMP DP RH WIND PRES REMARKS N CHARLESTON CLOUDY 54 52 93 CALM 30.17S FOG WATERFRONT PRK N/A 57 57 100 N5 30.16S MOUNT PLEASANT LGT RAIN 52 52 100 CALM 30.18S JOHNS ISLAND FAIR 57 55 94 CALM 30.17S FOG PINOPOLIS N/A 55 55 100 E5 30.10S MONCKS CORNER FAIR 52 50 93 CALM 30.18S SUMMERVILLE FAIR 50 48 93 N3 30.19R BEAUFORT MCAS PTCLDY 56 54 93 CALM 30.16S BEAUFORT ARPT FAIR 57 55 94 NE6 30.15F HILTON HEAD IS PTCLDY 59 57 94 NE5 30.16F WALTERBORO MOSUNNY 50 46 87 E3 30.17F ALLENDALE FAIR 52 50 93 CALM 30.16S ...SOUTHERN MIDLANDS AND PEE DEE... CITY SKY/WX TMP DP RH WIND PRES REMARKS GEORGETOWN FAIR 52 52 100 CALM 30.20S KINGSTREE FAIR 52 50 93 CALM 30.20R ORANGEBURG CLOUDY 51 47 86 CALM 30.18R BARNWELL FAIR 52 50 93 CALM 30.17S FOG AIKEN FAIR 46 43 87 CALM 30.20S MANNING FAIR 48 41 76 MISG 30.20R COLUMBIA PTCLDY 52 47 83 CALM 30.18R SUMTER CLOUDY 50 45 83 N6 30.18R FLORENCE CLOUDY 51 47 86 E5 30.21S MYRTLE BEACH NOT AVBL N MYRTLE BEACH CLOUDY 57 50 77 NE7 30.21R $$ GAZ063-065-086>088-099>101-113>116-118-119-134>141-150-210800- ...SOUTHEAST GEORGIA... CITY SKY/WX TMP DP RH WIND PRES REMARKS SAVANNAH ARPT CLOUDY 55 53 93 CALM 30.16R HUNTER AAF CLOUDY 57 57 100 CALM 30.13R FORT STEWART CLOUDY 52 50 91 CALM 30.12S STATESBORO MOCLDY 51 51 100 CALM 30.15F SYLVANIA CLOUDY N/A N/A N/A E3 30.16F CLAXTON FAIR N/A N/A N/A CALM 30.15S ...CSRA...CENTRAL AND FAR SOUTHEAST GEORGIA... CITY SKY/WX TMP DP RH WIND PRES REMARKS THOMSON CLOUDY 51 49 95 CALM 30.20S AUGUSTA-BUSH CLOUDY 50 46 86 CALM 30.17R AUGUSTA-DANIEL CLOUDY 59 45 59 SE6 30.17R SWAINSBORO FAIR 57 50 77 E6 30.15F VIDALIA CLOUDY 55 52 88 E5 30.14S EASTMAN FAIR 53 52 98 CALM 30.16S HAZLEHURST FAIR 58 51 79 CALM 30.13S ALMA CLOUDY 52 49 89 CALM 30.13R WAYCROSS PTCLDY 55 55 99 CALM 30.13F JESUP FAIR 52 48 87 CALM 30.13S BAXLEY FAIR 54 54 100 CALM 30.14R BRUNSWICK FOG 54 54 100 CALM 30.13F VSB 1/4 SAINT SIMONS CLOUDY 63 61 93 E7 30.12S $$ SCZ027-028-034-036>038-045-046-048>050-GAZ119-141-210800- ...LAKE AND SUPPLEMENTAL COASTAL OBSERVATIONS... STATION/POSITION TIME TEMP WIND PRES WAVE SWELL AIR SEA DIR/SP/G HT/PER HT/PER/DIR (UTC) (F) (DEG/KT/KT) (MB) (FT/S) (FT/S/D) WINYAH BAY 0630 58 50/ 5 1022.0S LAKE MURRAY 0630 54 CALM 1021.3R ACE BASIN NERRS 0645 54 CALM 1021.0S FORT PULASKI 0700 61 60 70/ 6/ 7 1021.1 SAPELO ISLAND 0700 63 90/ 5 1020.0 $$ ANZ835-935-AMZ111-154-330-350-352-354-370-450-454-472-210800- ...C-MAN AND BUOY OBSERVATIONS... STATION/POSITION TIME TEMP WIND PRES WAVE SWELL AIR SEA DIR/SP/G HT/PER HT/PER/DIR (UTC) (F) (DEG/KT/KT) (MB) (FT/S) (FT/S/D) BUOY 41004 0650 68 66 80/ 12/ 14 1021.0F 2/ 5 BUOY 41008 0650 63 62 70/ 4/ 6 1020.1S 1/ 4 2/100/ 5 FOLLY BEACH CMAN 0700 59 30/ 6/ 7 1022.0S CAPERS NEARSHORE 0708 59 59 50/ 8/ 10 1021.4F FRIPP NEARSHORE 0708 61 60 40/ 6/ 8 1020.7R STATION/POSITION TIME TEMP WIND PRES WAVE SWELL AIR SEA DIR/SP/G HT/PER HT/PER/DIR (UTC) (F) (DEG/KT/KT) (MB) (FT/S) (FT/S/D) 5E ST. MARYS GA 0700 64 N/A 1/ 3 FRYING PAN BUOY 0710 66 66 70/ 14/ 19 1022.4 BUOY 41025 0650 60 76 40/ 16/ 21 1023.5R 7/ 8 5/ 70/ 8 CAPE LOOKOUT NC 0700 53 10/ 10/ 12 1023.5R BUOY 41002 0650 68 71 30/ 16/ 19 1020.1R 5/ 7 2/200/12 BUOY 41010 NOT AVBL ST AUGUSTINE FL 0700 67 68 70/ 6/ 6 1020.1F $$

USA.gov is the U.S. government's official web portal to all federal, state and local government web resources and services.